Temp
-7 -7 -7 -7 -7 -7 -7 -7 -8 -8 -7 -7 -7 -7 -7 -7 -7 -6 -6 -6 -7 -7 -7 -7 -7 -7 -7 -7 -7 -7 -7 -7 -7 -7 -7 -7 -7 -7
-7 -7 -7 -7 -7 -7 -7 -7 -7 -7 -7 -7 -7 -7 -7 -7 -7 -7 -7 -7 -7 -7 -6 -7 -7 -6 -7 -6 -6 -6 -7 -7 -7 -7 -7 -7 -7 -7
-7 -7 -7 -7 -6 -6 -6 -7 -7 -7 -7 -7 -7 -7 -7 -7 -7 -7 -7 -6 -6 -6 -6 -6 -7 -7 -7 -7 -6 -6 -6 -6 -6 -6 -6 -6 -7 -7
-6 -6 -6 -7 -6 -6 -7 -7 -6 -6 -6 -6 -6 -6 -6 -7 -7 -6 -6 -6 -6 -6 -6 -6 -6 -6 -6 -6 -7 -6 -7 -6 -6 -6 -6 -6 -6 -6
-6 -6 -6 -7 -7 -7 -7 -7 -6 -6 -7 -7 -6 -6 -6 -6 -6 -6 -6 -6 -6 -6 -6 -6 -6 -6 -6 -6 -6 -6 -6 -6 -7 -7 -6 -6 -6 -6
-6 -6 -6 -6 -6 -7 -7 -6 -6 -6 -7 -7 -6 -7 -7 -7 -7 -6 -6 -6 -6 -6 -6 -6 -6 -6 -6 -6 -6 -6 -6 -6 -6 -6 -6 -7 -7 -7
-6 -6 -6 -6 -6 -6 -6 -7 -6 -6 -6 -7 -7 -7 -7 -7 -7 -7 -7 -6 -6 -6 -7 -7 -6 -6 -7 -7 -7 -7 -6 -6 -6 -6 -7 -6 -6 -7
-6 -6 -6 -6 -6 -6 -6 -6 -6 -6 -6 -6 -7 -7 -7 -7 -7 -7 -7 -7 -7 -7 -6 -6 -6 -7 -7 -7 -7 -7 -7 -7 -7 -7 -7 -7 -7 -7
-6 -6 -6 -6 -6 -6 -6 -6 -6 -5 -6 -7 -7 -7 -7 -8 -8 -8 -8 -8 -8 -7 -7 -6 -6 -7 -7 -7 -7 -7 -7 -7 -7 -7 -7 -7 -7 -8
-6 -6 -6 -6 -6 -6 -6 -6 -7 -7 -7 -7 -7 -7 -7 -7 -7 -8 -8 -8 -8 -8 -8 -8 -7 -7 -7 -7 -7 -7 -7 -7 -8 -8 -7 -7 -7 -7
-7 -7 -7 -7 -7 -7 -7 -6 -7 -7 -7 -7 -7 -7 -7 -7 -7 -7 -7 -7 -8 -8 -8 -8 -8 -8 -7 -7 -7 -7 -7 -7 -7 -7 -8 -8 -8 -8
-8 -8 -8 -8 -9 -8 -8 -8 -8 -8 -8 -8 -7 -7 -7 -7 -8 -7 -7 -7 -7 -7 -8 -7 -7 -8 -8 -7 -7 -7 -7 -7 -7 -8 -8 -8 -8 -8
-8 -8 -8 -8 -8 -8 -8 -8 -8 -8 -8 -8 -8 -8 -8 -7 -7 -7 -7 -7 -7 -8 -8 -8 -8 -8 -8 -7 -8 -8 -9 -8 -8 -8 -8 -8 -9 -9
-9 -9 -9 -9 -9 -9 -9 -9 -9 -9 -8 -8 -9 -9 -9 -9 -9 -8 -8 -9 -8 -9 -9 -9 -9 -9 -9 -9 -9 -9 -9 -9 -10 -10 -9 -9 -9 -9
-9 -9 -9 -9 -9 -8 -9 -8 -9 -9 -8 -8 -8 -9 -9 -9 -9 -9 -10 -10 -10 -10 -10 -10 -10 -10 -11 -10 -10 -10 -10 -10 -10 -10 -11 -11 -10 -10
-9 -9 -9 -9 -9 -9 -9 -9 -9 -9 -9 -9 -9 -9 -9 -10 -10 -10 -11 -11 -11 -11 -11 -11 -11 -11 -11 -11 -11 -11 -11 -11 -11 -11 -11 -11 -11 -10
-10 -10 -10 -10 -10 -10 -10 -10 -9 -10 -10 -10 -10 -10 -10 -10 -10 -10 -11 -11 -11 -11 -11 -12 -12 -12 -12 -12 -12 -12 -12 -12 -11 -11 -11 -11 -11 -11
-10 -10 -10 -10 -10 -10 -10 -10 -10 -11 -11 -11 -11 -11 -11 -11 -11 -11 -12 -12 -12 -12 -12 -13 -12 -12 -13 -13 -13 -12 -12 -12 -12 -12 -12 -12 -12 -13
-12 -12 -12 -12 -12 -11 -11 -11 -11 -12 -12 -12 -12 -13 -13 -13 -12 -13 -12 -12 -13 -13 -13 -13 -13 -14 -13 -13 -13 -13 -13 -13 -14 -14 -14 -14 -14 -14
-13 -13 -13 -13 -13 -13 -13 -13 -13 -13 -13 -13 -14 -14 -14 -14 -14 -14 -14 -14 -14 -14 -14 -14 -14 -15 -15 -15 -15 -14 -15 -15 -15 -15 -15 -15 -14 -14
-13 -14 -14 -14 -14 -14 -14 -14 -14 -14 -14 -14 -14 -14 -14 -14 -14 -15 -15 -15 -15 -15 -15 -15 -15 -15 -15 -15 -16 -16 -15 -15 -15 -15 -15 -15 -14 -15
-14 -14 -15 -15 -15 -15 -15 -15 -15 -15 -15 -15 -15 -15 -15 -15 -15 -15 -15 -15 -15 -15 -15 -15 -16 -16 -16 -16 -16 -16 -16 -16 -16 -16 -16 -16 -16 -16
-15 -15 -15 -15 -15 -15 -16 -16 -16 -16 -17 -16 -16 -16 -16 -16 -16 -16 -16 -16 -16 -16 -16 -16 -17 -17 -17 -17 -17 -17 -17 -17 -17 -18 -18 -18 -18 -18
Height
5949 5949 5948 5948 5947 5946 5946 5947 5946 5946 5945 5944 5943 5941 5939 5938 5936 5935 5934 5931 5929 5928 5926 5925 5923 5921 5919 5918 5917 5915 5912 5909 5906 5904 5901 5898 5896 5894
5947 5946 5946 5945 5944 5943 5943 5943 5943 5943 5942 5941 5939 5939 5938 5936 5934 5933 5931 5930 5928 5926 5925 5924 5923 5921 5920 5918 5917 5916 5913 5910 5908 5906 5903 5901 5898 5896
5943 5943 5943 5942 5942 5941 5940 5940 5939 5939 5938 5937 5936 5935 5934 5934 5933 5931 5929 5928 5927 5925 5924 5923 5921 5920 5919 5918 5916 5914 5912 5910 5908 5906 5905 5903 5900 5898
5940 5939 5939 5939 5938 5938 5937 5936 5936 5936 5935 5934 5933 5933 5932 5930 5929 5928 5927 5926 5925 5924 5922 5921 5920 5920 5919 5918 5916 5914 5912 5910 5907 5905 5904 5902 5901 5899
5936 5936 5935 5934 5934 5933 5933 5932 5931 5930 5930 5929 5929 5928 5927 5926 5925 5924 5923 5923 5921 5919 5917 5917 5917 5916 5916 5915 5913 5911 5909 5908 5907 5905 5903 5901 5900 5900
5931 5931 5931 5931 5930 5930 5928 5928 5927 5926 5926 5925 5923 5922 5921 5920 5919 5919 5919 5918 5917 5915 5913 5913 5913 5912 5911 5909 5908 5907 5906 5905 5902 5900 5898 5898 5898 5896
5924 5924 5925 5925 5924 5923 5923 5923 5921 5921 5922 5922 5921 5919 5918 5917 5915 5913 5912 5912 5911 5911 5909 5909 5907 5907 5906 5905 5904 5903 5901 5899 5897 5896 5895 5893 5892 5892
5917 5918 5919 5919 5918 5918 5917 5918 5918 5918 5918 5917 5916 5915 5913 5912 5912 5910 5909 5906 5904 5904 5902 5902 5901 5900 5900 5898 5897 5896 5895 5893 5891 5891 5889 5889 5888 5886
5911 5912 5913 5912 5911 5911 5910 5910 5910 5910 5911 5912 5910 5909 5908 5908 5905 5905 5903 5901 5898 5896 5895 5892 5892 5893 5892 5891 5890 5888 5888 5887 5885 5882 5881 5881 5881 5880
5904 5904 5904 5904 5903 5902 5902 5902 5901 5901 5901 5901 5901 5901 5901 5899 5898 5897 5897 5895 5892 5888 5884 5882 5878 5879 5882 5881 5881 5881 5880 5879 5878 5876 5873 5872 5872 5872
5895 5895 5895 5895 5896 5895 5894 5895 5895 5895 5893 5893 5891 5891 5891 5890 5889 5886 5885 5884 5883 5881 5878 5875 5872 5867 5867 5869 5869 5867 5867 5867 5867 5867 5865 5862 5860 5861
5886 5885 5886 5886 5886 5887 5886 5886 5886 5885 5886 5885 5885 5885 5883 5880 5879 5878 5876 5875 5872 5870 5867 5867 5866 5863 5861 5860 5859 5858 5858 5856 5856 5854 5853 5853 5851 5850
5878 5879 5878 5878 5879 5878 5879 5878 5878 5877 5876 5875 5874 5873 5871 5871 5869 5867 5866 5863 5863 5862 5862 5859 5855 5853 5853 5852 5850 5848 5845 5844 5844 5844 5845 5843 5841 5839
5869 5870 5869 5870 5869 5869 5868 5867 5866 5865 5863 5864 5863 5862 5862 5861 5859 5857 5854 5853 5852 5850 5850 5849 5848 5846 5844 5843 5843 5842 5841 5838 5835 5832 5830 5830 5829 5828
5859 5859 5858 5857 5858 5857 5856 5855 5854 5853 5853 5851 5850 5850 5849 5848 5848 5845 5843 5841 5839 5840 5838 5837 5837 5836 5835 5833 5832 5830 5829 5827 5826 5824 5821 5818 5816 5814
5848 5846 5846 5846 5845 5844 5842 5842 5841 5840 5839 5838 5837 5835 5834 5833 5833 5831 5832 5831 5829 5829 5827 5825 5824 5823 5821 5820 5819 5818 5816 5814 5811 5809 5807 5804 5801 5799
5836 5835 5834 5833 5832 5831 5830 5828 5828 5827 5826 5824 5823 5822 5820 5819 5818 5817 5816 5815 5814 5813 5812 5811 5809 5808 5806 5804 5802 5801 5798 5796 5795 5793 5790 5785 5782 5779
5819 5818 5818 5818 5817 5817 5816 5815 5813 5812 5811 5809 5808 5806 5805 5804 5803 5801 5800 5798 5796 5794 5792 5790 5789 5789 5787 5785 5783 5781 5778 5775 5773 5771 5768 5765 5761 5757
5801 5801 5801 5800 5799 5799 5798 5797 5797 5796 5795 5793 5793 5791 5787 5786 5785 5784 5783 5781 5779 5777 5775 5772 5770 5768 5765 5762 5763 5760 5757 5754 5751 5749 5747 5744 5741 5736
5786 5785 5783 5782 5782 5782 5782 5780 5779 5779 5777 5776 5775 5774 5772 5770 5769 5768 5766 5764 5762 5760 5758 5757 5753 5751 5748 5747 5742 5741 5738 5735 5733 5731 5729 5724 5721 5716
5769 5768 5767 5766 5766 5765 5764 5764 5763 5762 5761 5759 5758 5756 5755 5753 5751 5749 5748 5747 5745 5744 5741 5739 5737 5734 5732 5729 5727 5722 5719 5717 5714 5711 5708 5704 5701 5695
5751 5750 5749 5749 5748 5748 5747 5746 5745 5744 5743 5742 5740 5739 5738 5736 5733 5732 5731 5729 5726 5725 5722 5720 5718 5716 5714 5711 5708 5704 5701 5696 5693 5691 5688 5683 5679 5677
5733 5732 5731 5731 5730 5730 5729 5728 5727 5726 5724 5724 5724 5722 5721 5719 5717 5714 5712 5711 5709 5709 5706 5703 5701 5699 5697 5695 5692 5688 5685 5681 5677 5671 5665 5662 5658 5653
Wind_Speed
13 14 13 12 11 10 10 10 10 11 13 14 15 15 15 15 14 14 13 11 11 12 12 10 9 10 11 9 7 7 8 10 12 13 13 14 16 16
13 13 12 10 11 13 12 13 12 13 14 15 15 14 14 16 16 14 12 10 10 10 10 8 8 7 8 8 6 6 8 9 10 10 10 10 12 14
14 14 13 12 13 13 12 13 12 13 13 15 15 14 14 15 14 15 16 15 14 13 11 10 9 8 8 9 8 8 7 6 6 6 7 7 7 9
14 14 13 14 15 14 15 16 15 15 15 17 14 13 13 14 15 14 14 14 14 14 14 14 13 12 11 11 10 11 11 11 9 7 6 4 3 3
15 15 14 15 15 15 16 17 17 16 17 17 16 13 14 15 16 18 17 14 15 14 15 15 14 13 14 13 13 14 13 12 10 11 11 10 9 8
16 16 17 19 19 19 18 19 23 22 20 20 21 20 15 15 17 18 18 17 16 17 17 17 15 14 12 11 12 14 14 15 14 12 12 13 14 14
19 18 20 20 22 23 19 21 20 20 24 25 20 19 20 21 22 22 19 19 20 21 22 21 21 19 18 17 16 15 15 16 17 18 17 15 15 16
24 21 19 18 22 23 20 20 23 23 23 23 24 24 21 22 24 23 22 23 24 24 23 24 24 24 24 24 23 21 20 20 21 22 21 20 19 20
26 27 25 26 24 24 25 28 27 28 28 30 29 29 30 29 27 27 27 28 30 32 31 32 31 28 28 29 28 28 28 27 26 25 26 27 26 26
31 31 31 31 32 27 29 29 27 26 27 33 32 34 33 32 34 34 34 34 36 35 35 35 38 36 32 33 33 33 33 32 30 30 32 32 32 32
23 24 31 29 32 32 33 33 30 27 28 30 30 32 35 38 39 39 39 38 36 37 38 38 39 41 41 40 38 37 35 36 37 38 37 35 33 32
25 23 24 28 26 27 27 28 29 30 31 31 32 33 32 32 34 36 36 35 33 29 32 36 40 40 38 37 33 32 32 31 32 31 31 31 30 30
25 27 28 29 31 31 34 33 36 37 38 38 36 34 35 35 35 35 35 35 36 31 31 31 30 31 33 34 34 34 32 31 31 31 31 29 28 29
31 33 35 36 37 38 38 38 39 39 39 40 37 36 34 34 35 36 35 34 34 33 33 33 33 32 33 35 36 36 36 36 34 35 37 39 40 39
41 43 45 45 46 47 46 47 47 48 50 47 46 45 44 42 39 38 37 37 36 37 36 36 37 37 36 38 39 39 41 41 41 43 44 45 48 50
46 46 47 48 48 48 48 48 50 49 49 50 50 49 48 45 44 40 40 40 41 42 42 42 43 44 45 45 46 47 48 48 51 53 56 57 59 60
47 47 48 49 50 51 50 52 52 52 50 52 53 54 54 53 51 50 49 47 47 47 48 49 50 51 52 53 54 55 55 56 58 59 61 63 65 66
50 51 53 55 53 54 55 55 54 56 56 56 55 56 54 53 53 50 51 49 49 48 47 47 49 51 53 55 57 60 60 62 63 61 60 62 62 62
50 51 52 54 55 55 56 56 58 55 57 57 54 54 57 54 53 51 53 51 51 55 56 57 58 60 61 63 62 61 60 59 58 59 59 59 61 62
51 50 49 50 50 50 51 53 54 55 55 54 53 54 54 54 55 56 57 59 59 57 57 57 58 58 57 58 58 58 57 56 57 58 60 62 65 69
54 54 54 53 52 51 51 50 50 51 51 52 53 53 54 55 54 53 54 55 55 55 55 56 56 56 56 55 55 55 58 59 62 65 68 69 70 70
61 61 60 60 60 59 58 58 57 57 57 57 56 56 56 55 55 54 54 54 54 55 55 54 54 53 55 56 59 61 63 66 68 69 68 67 65 64
64 64 64 65 64 64 62 61 61 60 59 58 58 58 58 58 58 58 57 58 58 58 56 55 55 57 58 59 62 63 65 66 64 60 59 58 57 58
Wind_Direction
258 263 266 276 288 296 294 292 291 294 298 305 314 315 314 314 319 325 333 334 334 333 342 352 345 3 360 3 347 338 10 27 36 44 40 31 33 36
254 259 265 272 277 275 281 285 290 295 298 308 312 315 316 315 317 324 325 329 331 328 331 338 339 350 348 347 341 339 351 6 26 30 45 50 39 38
250 258 261 264 269 275 281 283 285 288 293 298 307 311 312 313 315 317 321 323 325 325 323 333 335 337 334 321 316 315 324 337 351 15 33 31 46 39
259 260 263 266 268 271 274 276 278 285 286 287 296 304 307 304 305 307 306 315 318 324 328 332 331 329 328 320 315 309 318 321 322 326 331 340 3 16
259 259 264 268 273 274 279 275 274 277 278 279 279 286 295 299 302 303 302 304 306 310 310 312 317 318 321 317 312 308 305 307 314 315 309 305 309 305
273 267 269 272 273 275 278 279 277 274 273 274 274 276 277 276 277 282 288 294 298 298 300 302 303 302 301 298 299 298 299 300 299 295 291 295 301 299
257 263 268 273 275 280 278 272 276 279 268 274 284 260 268 275 278 278 275 283 290 293 293 294 293 293 293 291 290 288 287 289 292 295 292 287 283 284
255 258 264 265 274 280 273 277 279 273 271 271 273 276 271 274 273 277 277 280 282 283 285 286 286 286 287 286 286 283 280 282 285 284 283 284 288 288
269 268 273 276 270 272 271 268 277 279 273 278 274 276 275 278 275 275 277 280 283 286 286 286 284 283 282 281 279 279 281 283 285 284 286 288 287 286
265 263 267 272 266 266 262 266 272 277 279 273 271 273 272 272 277 279 277 278 280 278 278 278 282 284 281 284 283 282 282 280 281 284 283 283 284 291
263 258 258 264 262 267 271 269 265 280 283 282 280 275 274 277 277 277 281 283 281 278 278 277 279 281 281 285 286 283 280 279 279 281 283 284 284 285
262 266 271 276 280 280 278 273 270 275 279 285 288 289 286 283 281 282 286 289 291 282 277 279 280 281 285 287 287 287 290 289 286 282 282 285 286 285
266 270 269 269 271 273 274 275 275 275 278 279 282 284 284 283 281 280 282 286 286 287 283 278 273 270 273 276 280 284 284 284 284 282 279 277 275 276
272 273 274 276 277 276 274 275 276 277 278 281 284 281 283 284 282 280 279 280 280 279 279 276 273 272 272 275 277 278 280 283 283 283 283 283 282 281
275 277 279 279 278 278 279 279 282 283 285 285 285 283 282 283 283 281 279 276 276 277 277 276 275 274 273 273 273 275 278 277 277 279 279 280 281 282
273 273 275 275 276 277 278 278 279 281 284 285 285 284 283 284 283 280 280 277 274 272 273 273 274 274 273 274 274 273 273 274 275 277 279 281 282 282
273 274 274 274 276 277 277 278 277 277 279 279 280 282 282 283 282 282 280 278 278 275 274 275 275 275 275 275 275 276 276 277 278 279 280 282 282 282
270 271 273 274 274 276 277 277 279 279 278 278 279 280 280 281 281 281 280 277 274 270 270 272 273 274 276 277 278 279 279 281 281 281 281 282 282 281
270 269 268 268 270 271 273 275 275 277 278 279 278 268 278 277 275 269 268 265 268 271 275 276 277 277 278 279 280 281 281 282 282 283 283 284 285 286
281 280 280 278 277 276 274 274 275 276 278 278 278 278 278 278 277 275 273 274 278 279 279 279 279 280 281 282 282 281 283 284 284 284 285 286 287 288
278 278 278 277 277 277 276 276 275 275 275 275 277 278 280 281 280 279 278 278 278 278 278 278 278 279 280 281 282 283 284 285 287 288 289 288 288 287
271 272 273 274 276 277 276 276 277 276 276 276 275 274 274 274 274 275 275 276 276 277 277 278 278 279 281 282 284 286 287 289 288 287 287 287 286 286
272 271 272 272 272 272 273 273 274 274 274 275 275 275 275 273 272 273 274 274 275 276 277 277 278 280 281 282 283 284 284 286 288 290 290 291 292 292